Погода в Бетенкесе

Россия / Республика Саха (Якутия)     67°38′56″N   135°34′22″E
темп.,
°C
ветер,
м/с
пор.,
м/с
влажн.,
%
обл.,
%
осадки,
мм/ч
давл.,
гПа
погр.,
м
27 февраля, сб
сб2701:00−37всв119696 0.0 103419
04:00−38св119575 0.0 103219
07:00−38св019122 0.0 103219
10:00−36всв118744 0.0 103219
13:00−32в118249 0.0 1032189
16:00−31в018848 0.0 1030119
19:00−36ссв019626 0.0 103119
22:00−37ссв119715 0.0 103019
28 февраля, вс
вс2801:00−37зюз11970 0.0 102919
04:00−37юз01960 0.0 102819
07:00−38зюз11960 0.0 102819
10:00−35юз11910 0.0 102719
13:00−31юз11860 0.0 1026204
16:00−30ююз11880 0.0 1025176
19:00−36зюз119625 0.0 102619
22:00−37в009730 0.0 102619
1 марта, пн
пн101:00−38всв111000 0.0 102519
04:00−39св111004 0.0 102519
07:00−39всв1110012 0.0 102618
10:00−37св019728 0.0 102519
13:00−33вюв119089 0.0 1024206
16:00−32вюв018986 0.0 1024169
19:00−37с119877 0.0 102519
22:00−37с119879 0.0 102519
2 марта, вт
вт201:00−36сз119492 0.0 102619
04:00−35зсз009395 0.0 102519
07:00−36юв009388 0.0 102619
10:00−34з009275 0.0 102721
13:00−31юз018515 0.0 1027249
16:00−29зюз118628 0.0 1027222
19:00−35зсз12920 0.0 102819
22:00−36зсз12909 0.0 102819
3 марта, ср
ср301:00−36зсз229063 0.0 102819
04:00−35з229181 0.0 102843
07:00−35з1292100 0.0 102739
10:00−34з1292100 0.0 1026104
13:00−32з1285100 0.0 1024304
16:00−31з2285100 0.0 1022318
19:00−35зсз2290100 0.0 102228
22:00−36зсз2290100 0.0 102133